CAPE
1033 531 32 3 0 0 0 1 0 0 0 0 0 0 0 0 0 0 0 0 0 0 0 0 0 0 0 0 0 27 30 84 340 351 308 0 0 0 0 0 0 0 0 0 0 0 0 14 140 403 567 745 871 929 851 959 921 946 922 862 835 703 694 649 528 526 564 608 622 490 222 182 100 95
1189 650 634 356 8 1 10 173 187 0 0 0 0 0 0 0 0 0 0 0 0 0 0 0 0 0 0 4 14 37 70 297 674 366 596 0 0 0 0 0 0 0 0 0 0 0 0 10 104 283 505 739 833 887 882 954 952 930 887 830 773 715 557 531 497 493 481 364 158 66 59 28 49 87
1436 1005 706 657 576 47 34 62 115 452 22 20 3 0 0 0 0 0 0 2 0 1 14 1 0 0 0 25 46 139 127 221 651 454 553 42 0 0 0 0 0 0 0 0 0 0 0 0 21 128 261 399 493 595 695 856 869 860 856 816 685 557 580 556 440 409 194 36 23 16 13 8 17 52
1679 1418 1087 765 699 619 75 127 170 250 155 43 266 24 9 1 1 0 0 0 6 23 7 7 1 0 4 50 72 78 180 241 662 558 479 166 163 102 0 0 0 0 0 0 0 0 0 0 0 33 155 245 292 408 524 695 802 718 622 579 523 508 544 349 184 101 32 5 2 4 3 4 19 20
1841 1649 1410 943 860 694 417 90 116 205 516 567 592 422 215 34 25 27 38 83 95 94 348 554 275 11 38 124 82 104 131 210 440 794 501 248 124 146 282 264 75 10 0 0 0 0 0 0 0 2 51 117 189 374 382 504 460 342 286 387 362 342 284 95 78 28 0 0 0 0 0 3 8 4
2064 1824 1593 1100 1022 1015 714 427 369 425 475 588 598 499 476 426 345 44 128 98 184 176 377 633 730 663 163 154 35 136 102 206 493 732 538 184 62 20 239 284 256 224 74 2 0 0 0 0 0 0 4 44 90 139 208 278 158 136 184 186 148 82 38 14 12 2 0 0 0 0 0 0 0 0
2182 2006 1771 1393 1068 1052 1038 821 525 398 454 578 601 573 489 481 452 418 252 114 121 262 306 260 637 688 560 278 63 21 35 228 497 541 335 208 264 242 188 350 399 257 178 249 209 0 0 0 0 0 0 0 6 26 90 98 62 46 58 44 27 6 2 0 0 0 0 0 0 0 0 0 0 0
2228 2097 1895 1628 1339 1121 1145 1140 958 619 512 605 610 652 691 565 576 561 503 471 449 486 503 107 467 622 644 488 7 96 171 111 482 526 324 168 326 485 493 380 432 384 361 48 2 0 0 0 0 0 0 0 0 0 0 0 0 0 0 0 0 0 0 0 0 0 0 0 0 0 0 0 0 0
2163 2045 1875 1678 1492 1332 1153 1177 1136 996 692 646 677 641 654 758 738 659 630 635 607 549 500 294 112 421 648 604 372 150 347 321 318 508 509 384 393 432 556 542 432 443 456 382 9 0 0 116 87 0 0 0 0 0 0 0 0 0 0 0 0 0 0 0 0 0 0 0 0 0 0 0 0 0
2232 2011 1836 1735 1591 1468 1353 1182 1104 1025 900 669 594 717 687 678 736 751 704 664 659 632 539 479 182 49 566 691 670 539 347 459 490 550 561 480 457 491 443 489 473 425 482 441 306 15 387 381 304 260 18 0 0 0 0 0 0 0 0 0 0 0 0 0 0 0 0 0 0 0 0 0 0 0
2398 2194 1965 1778 1646 1548 1443 1336 1195 1052 942 793 646 533 545 663 654 684 769 756 708 672 591 549 522 481 299 386 644 623 593 525 485 541 577 600 554 499 435 482 469 431 470 457 389 288 406 400 342 0 0 0 0 0 0 0 0 0 0 0 0 0 0 0 0 0 0 0 0 0 0 0 0 0
2564 2413 2202 1937 1716 1591 1505 1411 1338 1237 1106 921 795 704 611 572 586 638 693 740 765 738 675 595 575 559 557 517 547 619 641 618 571 515 500 518 531 568 535 563 547 433 418 490 394 344 259 346 331 327 304 257 0 0 0 0 0 0 0 0 0 0 0 0 0 0 0 0 0 0 0 0 0 0
2557 2488 2362 2197 1944 1700 1566 1492 1408 1335 1256 1102 923 856 788 747 682 636 642 679 710 754 740 719 617 570 574 589 580 630 659 642 610 546 521 516 505 532 565 586 586 556 430 415 418 412 383 348 308 0 0 0 0 0 0 0 0 0 0 0 0 0 0 0 0 0 0 0 0 0 0 0 0 0
2473 2464 2377 2264 2144 1974 1781 1652 1567 1478 1382 1284 1106 902 850 827 802 769 710 679 689 716 747 746 703 622 563 540 574 584 626 603 585 580 593 600 589 560 531 452 536 548 506 460 457 401 259 305 279 105 102 0 37 0 0 0 0 0 0 0 0 0 0 0 0 0 0 0 0 0 0 0 0 0
2352 2397 2397 2318 2200 2128 2035 1922 1788 1650 1526 1427 1346 1188 962 898 865 840 798 776 758 746 745 758 750 715 630 562 507 519 569 641 697 600 569 614 632 597 512 466 417 438 454 436 427 430 374 339 319 292 292 294 258 0 0 0 0 0 0 0 0 0 0 0 0 0 0 0 0 0 0 0 0 0
2319 2276 2319 2355 2312 2209 2131 2056 1998 1890 1773 1660 1548 1418 1273 1105 991 935 834 788 792 788 767 751 755 722 698 634 538 506 505 549 588 672 663 608 588 563 515 472 460 463 434 418 457 474 409 367 342 364 381 389 317 2 0 0 0 0 0 0 0 0 0 0 0 0 0 0 0 0 0 0 0 0
2459 2342 2258 2277 2334 2349 2324 2268 2186 2084 1998 1932 1835 1706 1572 1462 1331 1208 1071 922 752 730 708 689 691 686 685 644 591 520 480 467 473 502 563 590 566 528 484 471 437 434 444 424 394 478 428 390 446 451 453 400 90 2 0 0 0 0 0 0 0 0 0 0 0 0 0 0 0 0 0 0 0 0
2624 2543 2445 2350 2321 2359 2378 2384 2380 2318 2231 2129 2020 1934 1849 1768 1694 1595 1495 1370 1219 1075 981 861 741 628 569 593 575 541 491 452 426 399 416 443 456 464 460 437 407 406 525 438 387 399 430 399 417 431 334 0 0 0 0 0 0 0 0 0 0 0 0 0 0 0 0 0 0 0 0 0 0 0
2756 2725 2667 2594 2520 2448 2420 2448 2448 2417 2360 2283 2193 2104 2034 1956 1864 1754 1693 1648 1562 1434 1331 1220 1046 928 735 561 525 517 536 510 449 370 338 321 361 382 420 442 450 438 441 466 429 404 387 309 290 328 3 0 0 0 0 0 0 0 0 0 0 0 0 0 0 0 0 0 0 0 0 0 0 0
2829 2847 2838 2803 2764 2707 2637 2584 2561 2543 2483 2413 2350 2280 2198 2116 2030 1943 1863 1781 1672 1559 1478 1413 1274 1135 975 799 642 525 480 537 544 490 431 356 333 342 376 411 429 456 448 520 474 383 358 359 394 337 68 0 0 0 0 0 0 0 0 0 0 0 0 0 0 0 0 0 0 0 0 0 0 0
2836 2899 2944 2950 2934 2897 2877 2838 2780 2717 2681 2650 2583 2498 2424 2330 2236 2148 2060 2007 1925 1848 1812 1785 1677 1540 1382 1230 1120 1023 890 816 704 620 506 479 384 359 360 359 368 403 417 560 511 406 416 404 414 427 241 27 0 0 0 0 0 0 0 0 0 0 0 0 0 0 0 0 0 0 0 0 0 0
2873 2861 2893 2968 3019 3024 3017 3005 2972 2937 2873 2852 2806 2728 2645 2565 2471 2397 2325 2275 2199 2135 2084 2061 2036 1983 1878 1735 1617 1510 1401 1289 1113 951 778 584 390 385 394 388 398 413 447 533 539 438 446 399 434 458 318 161 7 0 0 0 0 0 0 0 0 0 0 0 0 0 0 0 0 0 0 0 0 0
2995 2991 2945 2986 3006 3008 3003 3004 2979 2974 2930 2908 2830 2834 2738 2694 2617 2526 2467 2446 2388 2318 2237 2196 2164 2138 2068 1989 1886 1781 1636 1522 1371 1253 1109 970 746 498 403 411 420 417 504 546 547 486 478 445 436 474 416 203 88 0 0 0 0 0 0 0 0 0 0 0 0 0 0 0 0 0 0 0 0 0
3194 3203 3231 3270 3298 3313 3333 3351 3342 3341 3305 3281 3269 3214 3105 2937 2841 2711 2561 2507 2447 2364 2270 2205 2186 2163 2107 2036 1977 1930 1799 1689 1500 1356 1213 1118 956 822 658 421 355 368 462 544 543 504 485 447 454 460 466 295 147 0 0 0 0 0 0 0 0 0 0 0 0 0 0 0 0 0 0 0 0 0
3421 3451 3494 3525 3557 3599 3647 3669 3678 3676 3679 3656 3581 3488 3421 3331 3212 3097 2986 2895 2774 2676 2611 2612 2555 2551 2523 2437 2355 2282 2232 2114 1996 1888 1752 1482 1244 1027 813 663 468 338 432 494 520 493 478 456 423 390 452 432 213 44 0 0 0 0 0 0 0 0 0 0 0 0 0 0 0 0 0 0 0 0
3686 3743 3786 3822 3885 3925 3944 3974 3989 4014 3992 3920 3844 3762 3633 3500 3442 3315 3256 3122 3034 3004 2980 2893 2865 2809 2720 2683 2625 2588 2532 2521 2428 2280 2195 2060 1847 1535 1258 942 663 531 458 426 465 507 506 557 608 607 604 537 312 33 0 0 0 0 0 0 0 0 0 0 0 0 0 0 0 0 0 0 0 0
3784 3830 3875 3930 3978 4013 4052 4067 4065 4071 4101 4076 4004 3972 3893 3807 3660 3502 3386 3361 3302 3169 3163 3014 2957 2951 2843 2731 2677 2630 2630 2612 2495 2386 2380 2326 2209 1957 1683 1439 1221 884 528 466 381 472 486 520 581 624 644 585 408 0 0 0 0 0 0 0 0 0 0 0 0 0 0 0 0 0 0 0 0 0
3822 3837 3834 3881 3905 3947 3970 3980 3985 4012 4000 3983 3980 3967 3907 3865 3732 3512 3451 3372 3327 3300 3158 3104 3018 2946 2931 2850 2826 2744 2708 2712 2662 2596 2591 2475 2423 1883 1561 1446 1146 1077 637 734 560 446 474 503 516 559 553 482 332 152 0 0 0 0 0 0 0 0 0 0 0 0 0 0 0 0 0 0 0 0
3970 3943 3902 3880 3843 3842 3878 3901 3932 3957 3981 3998 4021 4003 3977 3911 3774 3700 3656 3628 3494 3411 3312 3232 3120 3002 2954 2898 2843 2670 2530 2390 2526 2523 2358 2256 2053 1989 1672 1302 770 643 641 689 551 569 563 555 514 582 685 516 421 237 0 0 0 0 0 0 0 0 0 0 0 0 0 0 0 0 0 0 0 0
4194 4186 4164 4124 4047 3966 3890 3913 3966 4013 4030 4006 3972 3976 3964 3931 3894 3832 3792 3749 3688 3616 3540 3394 3262 3177 3116 3087 2741 2726 2523 2459 2170 2110 2125 1821 1741 1461 1177 927 786 937 1078 1156 658 656 693 569 569 518 594 631 570 316 99 0 0 0 0 0 0 0 0 0 0 0 0 0 0 0 0 0 0 0
4426 4394 4256 4110 4008 3988 3950 3934 3964 3976 3946 3894 3877 3890 3880 3857 3805 3777 3694 3607 3565 3570 3465 3430 3356 3308 3190 3054 2660 2337 2379 2407 2252 2270 2216 2013 1719 1514 1545 968 1134 1176 1005 929 919 751 554 629 646 492 503 594 442 55 197 0 0 0 0 0 0 0 0 0 0 0 0 0 0 0 0 0 0 0
4167 4097 4046 4028 3996 3961 3952 3917 3870 3840 3794 3754 3691 3647 3630 3594 3538 3499 3444 3395 3386 3374 3348 3287 3237 3182 3130 2945 2305 2031 1731 2103 2192 2010 1850 1757 1759 1472 1513 1324 1129 1363 1186 1018 950 776 584 518 589 579 427 420 436 0 0 0 0 0 0 0 0 0 0 0 0 0 0 0 0 0 0 0 0 0
3328 3233 3342 3395 3422 3414 3420 3434 3439 3430 3407 3403 3392 3372 3352 3351 3325 3272 3209 3097 2987 2857 2645 2420 2135 1713 1487 1610 1677 1776 1815 1909 1879 1837 1829 1865 1810 1720 1584 1212 1123 1193 1248 1424 1072 921 750 420 477 545 509 372 345 198 48 8 0 0 0 0 0 0 0 0 0 0 0 0 0 0 0 0 0 0
3293 3285 3269 3268 3246 3223 3204 3176 3094 3016 2871 2742 2500 2042 1577 953 476 280 359 418 444 440 462 484 512 575 668 805 910 1002 1108 1154 1343 1442 1352 1300 1343 1428 1400 1427 1461 1475 1291 1355 1234 1239 1087 557 433 506 245 226 152 113 83 0 0 0 0 0 0 0 0 0 0 0 0 0 0 0 0 0 0 0
3397 3382 3308 3217 3065 2962 2778 2561 2445 1854 538 0 0 0 0 0 0 0 0 0 1 61 122 176 236 297 362 430 534 570 634 775 837 972 1150 1178 1135 989 917 867 820 873 934 1058 1131 1282 1072 735 560 364 340 108 88 2 6 3 0 0 0 0 0 0 0 0 0 0 0 0 0 0 0 0 0 0
3220 3123 2963 2746 2453 1817 906 206 0 0 0 0 0 0 0 0 0 0 0 0 0 0 1 8 28 112 204 273 348 424 486 543 656 763 840 878 917 862 817 861 938 1002 966 972 1085 1123 910 808 756 325 6 114 33 16 2 14 0 0 0 0 0 0 0 0 0 0 0 0 0 0 0 0 0 0
2285 1699 839 0 0 0 0 0 0 0 1 2 2 2 2 0 0 0 0 0 0 0 0 0 0 3 8 43 97 157 252 337 432 548 669 790 892 1006 1104 1045 1050 1056 1025 1025 943 932 882 927 518 113 80 35 96 60 35 0 0 0 0 0 0 0 0 0 0 0 0 0 0 0 0 0 0 0
0 0 0 0 0 0 0 1 2 4 4 5 5 4 2 1 0 0 0 0 0 0 0 0 0 2 6 12 26 82 180 281 333 393 472 521 551 528 459 434 483 541 637 736 650 592 535 630 585 299 189 4 202 18 17 7 0 0 0 0 0 0 0 1 0 0 0 0 0 0 0 0 0 0
0 0 0 0 0 0 0 0 2 4 5 4 4 3 3 2 2 2 2 2 2 2 3 3 5 5 8 13 20 32 62 151 254 336 396 413 445 405 399 492 592 678 632 628 666 632 443 632 520 492 277 158 17 0 2 0 0 0 0 0 0 0 0 2 0 0 0 0 0 0 0 0 0 0
0 0 0 0 0 0 0 0 0 1 2 2 2 2 2 3 3 3 3 2 3 2 4 4 4 6 10 14 15 30 49 94 132 189 286 375 432 383 325 342 384 431 461 561 341 14 319 426 393 454 378 49 64 134 164 0 0 0 0 0 0 0 0 0 0 0 0 0 0 0 0 0 0 0
0 0 0 0 0 0 0 0 0 0 0 0 0 0 0 0 0 0 0 0 0 2 4 4 6 8 12 15 21 25 30 42 77 135 212 294 319 266 146 170 175 150 162 178 45 117 337 465 512 426 303 113 42 183 28 3 1 0 0 0 0 0 0 0 0 0 0 0 0 0 0 0 0 0
0 0 0 0 0 0 0 0 0 0 0 0 0 0 0 0 0 0 0 0 0 0 1 2 4 4 5 8 16 16 16 20 24 19 15 22 35 20 20 41 54 119 55 47 43 102 232 303 310 229 324 362 226 19 8 0 0 0 0 0 2 0 0 0 0 0 0 0 0 0 0 0 0 0
0 0 0 0 0 0 0 0 0 0 0 0 0 0 0 0 0 0 0 0 0 0 0 0 0 1 0 1 7 16 19 21 20 20 16 23 16 15 7 15 20 18 23 26 50 41 42 102 279 338 295 95 6 2 2 0 0 0 0 8 25 13 0 0 0 0 0 0 0 0 0 0 0 0
0 0 0 0 0 0 0 0 0 0 0 0 0 0 0 0 0 0 0 0 0 0 0 0 0 0 0 0 1 0 0 0 6 8 13 13 8 8 4 0 0 0 0 0 0 2 4 24 165 237 8 2 2 2 1 0 0 0 2 13 26 0 0 0 0 0 0 0 0 0 0 0 0 0
0 0 0 0 0 0 0 0 0 0 0 0 0 0 0 0 0 0 0 0 0 0 0 0 0 0 0 0 0 0 0 0 0 0 0 0 0 0 0 2 1 0 2 1 0 0 0 2 136 1 0 0 7 7 0 0 0 0 2 20 1 0 0 0 0 0 0 0 0 0 0 0 0 0
Wind_Speed
15 13 nan nan nan nan nan nan nan nan nan nan nan nan nan nan nan nan nan nan nan nan nan nan nan nan nan nan nan nan nan nan 25 24 25 nan nan nan nan nan nan nan nan nan nan nan nan nan 30 30 30 30 30 31 32 33 33 34 35 35 36 36 36 36 37 37 36 35 34 33 32 31 nan nan
15 15 14 13 nan nan nan 12 12 nan nan nan nan nan nan nan nan nan nan nan nan nan nan nan nan nan nan nan nan nan nan 24 27 24 25 nan nan nan nan nan nan nan nan nan nan nan nan nan 32 32 32 32 32 33 34 34 35 36 36 36 37 37 38 38 39 39 38 37 36 nan nan nan nan nan
15 16 17 16 15 nan nan nan 13 13 nan nan nan nan nan nan nan nan nan nan nan nan nan nan nan nan nan nan nan 17 18 21 25 24 24 nan nan nan nan nan nan nan nan nan nan nan nan nan nan 33 33 33 34 35 37 39 39 39 38 38 38 39 39 40 41 41 41 nan nan nan nan nan nan nan
15 16 17 18 18 17 nan 16 15 15 15 nan 17 nan nan nan nan nan nan nan nan nan nan nan nan nan nan nan nan nan 17 18 25 22 23 25 28 27 nan nan nan nan nan nan nan nan nan nan nan nan 33 34 36 39 42 45 44 42 40 39 39 39 40 42 43 44 nan nan nan nan nan nan nan nan
16 17 17 18 18 18 18 nan 18 17 16 17 18 18 20 nan nan nan nan nan nan nan 15 16 15 nan nan 14 nan 18 18 18 19 20 21 23 24 26 27 28 nan nan nan nan nan nan nan nan nan nan nan 36 39 42 45 48 48 46 43 40 40 41 42 nan nan nan nan nan nan nan nan nan nan nan
16 17 18 17 17 17 19 19 20 20 19 19 19 19 20 21 21 nan 22 nan 20 19 13 14 14 14 17 18 nan 22 22 21 20 22 22 22 nan nan 27 29 29 35 nan nan nan nan nan nan nan nan nan nan nan 43 45 48 49 49 47 44 42 nan nan nan nan nan nan nan nan nan nan nan nan nan
17 17 17 18 18 16 17 19 19 20 21 20 20 20 19 20 21 21 21 21 21 20 18 18 16 17 18 21 nan nan nan 22 24 25 25 25 25 25 27 29 29 32 35 36 37 nan nan nan nan nan nan nan nan nan nan nan nan nan nan nan nan nan nan nan nan nan nan nan nan nan nan nan nan nan
17 19 18 18 19 18 18 18 18 19 20 20 20 19 19 19 20 21 21 21 22 21 20 18 21 18 20 18 nan nan 21 23 23 24 24 25 26 28 28 29 29 31 36 nan nan nan nan nan nan nan nan nan nan nan nan nan nan nan nan nan nan nan nan nan nan nan nan nan nan nan nan nan nan nan
18 18 19 19 19 18 17 16 16 17 19 20 20 20 20 20 19 19 21 21 20 22 23 20 20 20 19 19 20 21 23 22 22 21 24 26 27 28 29 29 30 32 37 39 nan nan nan 40 nan nan nan nan nan nan nan nan nan nan nan nan nan nan nan nan nan nan nan nan nan nan nan nan nan nan
17 17 18 18 17 17 17 17 17 17 18 18 19 20 21 21 21 20 20 21 21 22 22 23 21 nan 23 20 21 23 24 25 25 23 22 22 24 27 28 30 31 31 32 33 33 nan 36 38 41 42 nan nan nan nan nan nan nan nan nan nan nan nan nan nan nan nan nan nan nan nan nan nan nan nan
14 15 15 16 16 16 16 16 18 19 19 19 19 19 20 21 22 22 21 22 21 21 21 21 24 24 24 26 25 24 26 26 28 29 27 25 27 28 30 31 31 32 33 35 39 39 40 42 43 nan nan nan nan nan nan nan nan nan nan nan nan nan nan nan nan nan nan nan nan nan nan nan nan nan
12 13 13 14 15 16 15 16 16 18 19 19 18 19 19 20 22 22 22 22 22 21 21 21 23 26 26 25 26 28 31 28 25 29 32 32 32 32 32 33 35 35 36 36 37 37 39 39 41 42 44 45 nan nan nan nan nan nan nan nan nan nan nan nan nan nan nan nan nan nan nan nan nan nan
10 10 11 11 12 14 16 19 18 18 19 19 19 20 22 22 23 22 22 23 23 22 22 20 23 25 26 27 30 32 34 36 35 34 34 31 33 35 34 34 36 38 39 39 40 41 43 43 43 nan nan nan nan nan nan nan nan nan nan nan nan nan nan nan nan nan nan nan nan nan nan nan nan nan
10 11 11 12 18 19 19 20 20 20 21 23 21 22 24 25 25 25 24 25 24 25 24 23 25 26 25 27 31 32 33 34 34 36 37 35 35 37 35 33 37 41 42 42 42 43 45 46 45 47 47 nan nan nan nan nan nan nan nan nan nan nan nan nan nan nan nan nan nan nan nan nan nan nan
13 13 14 13 16 19 19 20 24 24 25 25 26 27 28 28 28 26 26 25 26 26 25 24 25 26 24 25 30 32 32 36 37 37 38 36 38 40 40 37 37 42 46 43 43 43 46 48 47 47 48 49 50 nan nan nan nan nan nan nan nan nan nan nan nan nan nan nan nan nan nan nan nan nan
13 14 14 14 14 15 19 20 20 23 26 27 28 29 29 30 32 32 31 28 26 26 25 24 26 26 25 25 30 31 34 35 38 37 38 39 40 40 40 40 41 42 50 47 46 43 47 50 49 48 50 51 51 nan nan nan nan nan nan nan nan nan nan nan nan nan nan nan nan nan nan nan nan nan
13 12 13 14 15 16 22 22 21 21 22 25 28 29 30 30 31 33 34 34 31 29 28 26 25 27 27 27 28 33 36 39 39 39 38 38 40 41 42 42 42 42 50 50 47 45 48 53 50 49 51 54 nan nan nan nan nan nan nan nan nan nan nan nan nan nan nan nan nan nan nan nan nan nan
13 14 14 14 15 16 17 19 21 22 22 24 25 25 26 26 27 30 33 33 33 32 32 31 28 27 32 31 30 34 40 43 41 42 40 41 41 42 43 44 44 45 50 51 49 44 47 52 51 49 50 nan nan nan nan nan nan nan nan nan nan nan nan nan nan nan nan nan nan nan nan nan nan nan
14 15 14 15 15 16 17 18 22 23 24 25 25 27 27 28 27 28 29 29 30 32 33 33 30 28 32 32 31 34 40 41 40 43 43 45 44 41 37 35 39 43 46 49 51 45 47 51 50 48 nan nan nan nan nan nan nan nan nan nan nan nan nan nan nan nan nan nan nan nan nan nan nan nan
12 13 14 15 15 16 18 20 26 27 26 26 26 26 26 26 27 27 29 32 34 34 34 34 32 30 32 34 33 36 39 38 38 39 39 41 42 38 35 36 40 42 46 50 53 47 46 51 51 47 nan nan nan nan nan nan nan nan nan nan nan nan nan nan nan nan nan nan nan nan nan nan nan nan
13 14 16 17 17 18 18 21 26 28 30 27 27 27 26 26 26 26 28 32 33 34 35 36 35 33 33 36 37 39 44 43 42 42 41 42 47 43 39 38 42 42 49 49 53 52 48 51 52 49 49 nan nan nan nan nan nan nan nan nan nan nan nan nan nan nan nan nan nan nan nan nan nan nan
14 17 22 23 22 22 21 24 26 29 32 28 28 28 27 26 26 25 30 32 33 34 35 36 36 35 35 37 38 41 45 46 47 47 43 44 48 45 44 41 43 42 45 46 52 51 47 52 51 51 47 50 nan nan nan nan nan nan nan nan nan nan nan nan nan nan nan nan nan nan nan nan nan nan
18 20 24 27 27 25 24 26 27 30 33 29 29 30 29 27 25 25 34 33 33 35 38 37 38 36 36 39 41 41 45 47 49 48 45 46 49 47 45 43 43 41 39 44 53 49 46 52 47 51 49 47 nan nan nan nan nan nan nan nan nan nan nan nan nan nan nan nan nan nan nan nan nan nan
19 22 24 26 28 26 24 25 27 30 35 31 30 31 31 28 24 29 35 35 37 38 39 39 41 40 40 43 44 44 45 45 46 48 48 48 51 50 47 48 50 46 42 48 55 50 48 49 47 44 48 50 48 nan nan nan nan nan nan nan nan nan nan nan nan nan nan nan nan nan nan nan nan nan
19 21 23 23 26 27 25 25 25 28 32 33 31 31 31 30 27 30 34 35 40 41 42 42 42 42 43 44 46 48 48 48 48 49 48 49 52 53 52 52 53 49 47 52 58 53 53 53 48 46 41 44 48 nan nan nan nan nan nan nan nan nan nan nan nan nan nan nan nan nan nan nan nan nan
20 21 22 23 24 27 27 26 25 26 29 32 32 29 30 30 29 32 35 35 39 44 44 44 44 43 44 46 48 48 49 49 50 52 51 51 53 54 54 56 56 54 52 58 64 57 58 55 53 51 47 47 45 nan nan nan nan nan nan nan nan nan nan nan nan nan nan nan nan nan nan nan nan nan
21 23 23 22 24 26 27 27 27 27 29 33 34 31 31 31 32 35 38 38 40 43 44 45 44 43 44 45 47 48 48 49 51 51 50 51 52 53 53 56 57 55 55 61 59 59 58 56 56 55 51 49 52 nan nan nan nan nan nan nan nan nan nan nan nan nan nan nan nan nan nan nan nan nan
25 24 26 27 26 25 26 28 29 30 32 34 35 35 34 34 35 39 41 43 44 44 44 43 44 44 45 47 49 50 50 49 48 46 46 48 51 54 58 60 60 59 59 59 59 59 59 58 56 52 54 55 55 55 nan nan nan nan nan nan nan nan nan nan nan nan nan nan nan nan nan nan nan nan
32 35 34 34 35 34 33 34 35 35 35 35 34 34 35 37 41 42 44 45 47 46 44 43 43 45 47 51 55 56 54 50 48 48 49 50 52 57 68 70 67 63 64 62 60 59 58 57 56 56 55 54 55 54 nan nan nan nan nan nan nan nan nan nan nan nan nan nan nan nan nan nan nan nan
27 27 29 32 34 38 41 42 43 41 40 41 40 39 41 45 47 48 49 49 48 46 45 44 45 46 49 54 67 72 65 57 56 56 53 54 54 64 72 72 66 61 61 61 61 61 59 57 57 58 57 54 53 56 nan nan nan nan nan nan nan nan nan nan nan nan nan nan nan nan nan nan nan nan
30 30 33 35 34 35 36 37 39 39 41 43 44 47 50 51 51 51 52 51 48 47 47 47 48 50 51 61 77 75 67 57 55 56 52 53 57 65 68 68 61 53 50 53 57 57 56 57 58 59 57 56 54 nan 57 nan nan nan nan nan nan nan nan nan nan nan nan nan nan nan nan nan nan nan
38 40 41 42 43 43 43 43 45 46 47 49 49 51 53 53 53 52 50 49 48 48 49 48 48 50 53 59 72 72 64 58 53 55 53 53 57 62 64 62 58 53 48 49 50 50 51 56 59 57 56 58 57 nan nan nan nan nan nan nan nan nan nan nan nan nan nan nan nan nan nan nan nan nan
45 46 46 47 47 49 48 47 48 49 50 51 53 53 54 54 53 52 54 52 50 51 52 51 51 51 53 54 64 63 60 56 54 55 55 55 57 58 58 57 56 56 52 50 52 52 51 53 57 61 56 55 56 60 nan nan nan nan nan nan nan nan nan nan nan nan nan nan nan nan nan nan nan nan
49 49 50 50 49 50 51 51 52 52 54 54 54 55 54 53 52 52 53 54 53 52 51 50 49 48 50 50 55 58 58 56 55 55 55 54 56 56 56 55 55 57 55 54 55 56 57 58 60 59 58 56 55 56 nan nan nan nan nan nan nan nan nan nan nan nan nan nan nan nan nan nan nan nan
51 51 53 51 52 53 54 55 54 55 55 nan nan nan nan nan nan nan nan nan nan nan 50 47 47 47 47 47 50 54 56 55 54 54 55 55 56 57 58 58 58 60 60 59 58 59 63 64 65 62 60 60 nan nan nan nan nan nan nan nan nan nan nan nan nan nan nan nan nan nan nan nan nan nan
54 53 55 55 55 55 56 56 nan nan nan nan nan nan nan nan nan nan nan nan nan nan nan nan nan 46 45 45 47 50 52 53 52 52 53 55 55 55 56 57 60 62 64 62 63 64 66 65 65 63 nan 58 nan nan nan nan nan nan nan nan nan nan nan nan nan nan nan nan nan nan nan nan nan nan
57 55 56 nan nan nan nan nan nan nan nan nan nan nan nan nan nan nan nan nan nan nan nan nan nan nan nan nan nan 45 46 48 50 52 52 53 55 56 58 60 63 65 65 62 65 66 64 63 63 64 nan nan nan nan nan nan nan nan nan nan nan nan nan nan nan nan nan nan nan nan nan nan nan nan
nan nan nan nan nan nan nan nan nan nan nan nan nan nan nan nan nan nan nan nan nan nan nan nan nan nan nan nan nan nan 45 48 51 53 53 53 54 58 61 63 65 66 65 64 66 67 66 66 65 62 62 nan 57 nan nan nan nan nan nan nan nan nan nan nan nan nan nan nan nan nan nan nan nan nan
nan nan nan nan nan nan nan nan nan nan nan nan nan nan nan nan nan nan nan nan nan nan nan nan nan nan nan nan nan nan nan 49 50 52 54 55 55 55 58 60 63 65 65 64 67 69 68 63 61 61 59 58 nan nan nan nan nan nan nan nan nan nan nan nan nan nan nan nan nan nan nan nan nan nan
nan nan nan nan nan nan nan nan nan nan nan nan nan nan nan nan nan nan nan nan nan nan nan nan nan nan nan nan nan nan nan nan 54 54 55 57 58 58 59 64 69 70 68 69 72 nan 68 62 58 57 55 nan nan 58 58 nan nan nan nan nan nan nan nan nan nan nan nan nan nan nan nan nan nan nan
nan nan nan nan nan nan nan nan nan nan nan nan nan nan nan nan nan nan nan nan nan nan nan nan nan nan nan nan nan nan nan nan nan 57 56 56 57 58 64 72 71 66 64 65 nan 63 59 55 56 60 62 62 nan 64 nan nan nan nan nan nan nan nan nan nan nan nan nan nan nan nan nan nan nan nan
nan nan nan nan nan nan nan nan nan nan nan nan nan nan nan nan nan nan nan nan nan nan nan nan nan nan nan nan nan nan nan nan nan nan nan nan nan nan nan nan nan 59 nan nan nan 48 49 54 59 59 55 57 62 nan nan nan nan nan nan nan nan nan nan nan nan nan nan nan nan nan nan nan nan nan
nan nan nan nan nan nan nan nan nan nan nan nan nan nan nan nan nan nan nan nan nan nan nan nan nan nan nan nan nan nan nan nan nan nan nan nan nan nan nan nan nan nan nan nan nan nan nan 49 51 49 46 nan nan nan nan nan nan nan nan nan nan nan nan nan nan nan nan nan nan nan nan nan nan nan
nan nan nan nan nan nan nan nan nan nan nan nan nan nan nan nan nan nan nan nan nan nan nan nan nan nan nan nan nan nan nan nan nan nan nan nan nan nan nan nan nan nan nan nan nan nan nan nan 55 50 nan nan nan nan nan nan nan nan nan nan nan nan nan nan nan nan nan nan nan nan nan nan nan nan
nan nan nan nan nan nan nan nan nan nan nan nan nan nan nan nan nan nan nan nan nan nan nan nan nan nan nan nan nan nan nan nan nan nan nan nan nan nan nan nan nan nan nan nan nan nan nan nan 70 nan nan nan nan nan nan nan nan nan nan nan nan nan nan nan nan nan nan nan nan nan nan nan nan nan
Wind_Direction
358 357 nan nan nan nan nan nan nan nan nan nan nan nan nan nan nan nan nan nan nan nan nan nan nan nan nan nan nan nan nan nan 17 18 18 nan nan nan nan nan nan nan nan nan nan nan nan nan 19 15 12 9 7 3 0 360 359 358 356 355 355 354 355 355 355 356 356 357 358 359 359 356 nan nan
3 358 357 357 nan nan nan 0 353 nan nan nan nan nan nan nan nan nan nan nan nan nan nan nan nan nan nan nan nan nan nan 21 16 15 15 nan nan nan nan nan nan nan nan nan nan nan nan nan 21 17 14 10 8 6 4 2 1 358 356 355 354 354 354 353 354 355 355 356 357 nan nan nan nan nan
6 7 5 2 4 nan nan nan 354 348 nan nan nan nan nan nan nan nan nan nan nan nan nan nan nan nan nan nan nan 22 23 21 16 12 12 nan nan nan nan nan nan nan nan nan nan nan nan nan nan 19 17 14 12 10 6 4 2 358 355 354 353 353 352 351 351 354 355 nan nan nan nan nan nan nan
2 8 11 9 8 2 nan 352 351 352 347 nan 353 nan nan nan nan nan nan nan nan nan nan nan nan nan nan nan nan nan 17 16 16 9 10 12 14 14 nan nan nan nan nan nan nan nan nan nan nan nan 16 13 10 7 5 4 2 358 353 352 352 350 349 348 350 353 nan nan nan nan nan nan nan nan
352 2 9 12 11 2 359 nan 352 351 349 343 350 351 351 nan nan nan nan nan nan nan 10 10 15 nan nan 5 nan 8 8 5 6 6 5 5 5 6 7 8 nan nan nan nan nan nan nan nan nan nan nan 8 4 2 2 2 1 359 355 352 351 348 347 nan nan nan nan nan nan nan nan nan nan nan
347 352 1 8 10 2 5 0 357 352 348 344 346 349 349 351 350 nan 348 nan 4 20 5 7 3 359 353 4 nan 1 0 2 354 358 358 356 nan nan 0 1 3 9 nan nan nan nan nan nan nan nan nan nan nan 1 1 0 359 358 357 354 351 nan nan nan nan nan nan nan nan nan nan nan nan nan
347 349 353 0 1 357 1 5 3 353 351 346 346 349 345 347 347 346 350 346 359 6 10 357 359 357 352 357 nan nan nan 355 351 353 354 353 352 354 355 355 355 1 5 6 5 nan nan nan nan nan nan nan nan nan nan nan nan nan nan nan nan nan nan nan nan nan nan nan nan nan nan nan nan nan
349 352 350 355 355 355 359 2 360 355 349 348 347 345 342 341 345 343 343 349 351 352 358 353 355 351 348 356 nan nan 348 348 348 351 351 348 350 350 349 350 350 353 358 nan nan nan nan nan nan nan nan nan nan nan nan nan nan nan nan nan nan nan nan nan nan nan nan nan nan nan nan nan nan nan
355 355 355 356 352 351 355 354 353 350 351 349 344 343 338 339 340 336 339 345 344 346 352 350 341 341 344 345 345 341 344 345 345 344 348 347 348 347 345 343 346 350 354 355 nan nan nan 354 nan nan nan nan nan nan nan nan nan nan nan nan nan nan nan nan nan nan nan nan nan nan nan nan nan nan
356 358 359 355 351 350 351 350 346 346 351 347 346 343 339 338 334 337 337 338 344 345 349 343 344 nan 339 337 337 335 338 339 339 340 342 338 339 341 341 340 339 338 338 339 342 nan 348 350 352 351 nan nan nan nan nan nan nan nan nan nan nan nan nan nan nan nan nan nan nan nan nan nan nan nan
356 358 354 350 348 351 352 349 344 344 345 345 351 347 343 337 335 338 337 336 342 343 342 339 337 337 335 334 336 330 330 334 334 336 337 340 337 335 338 339 335 334 336 339 343 341 341 343 342 nan nan nan nan nan nan nan nan nan nan nan nan nan nan nan nan nan nan nan nan nan nan nan nan nan
355 355 352 349 348 353 353 352 349 341 343 341 346 344 339 339 339 341 337 336 341 341 339 340 335 329 333 329 324 318 319 327 329 333 335 340 335 336 334 335 334 332 332 334 333 334 336 337 338 338 338 340 nan nan nan nan nan nan nan nan nan nan nan nan nan nan nan nan nan nan nan nan nan nan
4 1 1 1 1 2 6 8 2 354 348 342 348 346 342 347 347 345 340 341 340 340 340 341 328 325 328 329 324 324 325 330 337 328 328 333 329 328 329 331 329 329 330 332 330 331 330 332 333 nan nan nan nan nan nan nan nan nan nan nan nan nan nan nan nan nan nan nan nan nan nan nan nan nan
35 31 26 25 28 24 21 19 18 15 9 6 359 353 349 352 349 349 348 347 344 341 344 344 332 331 336 328 323 325 327 322 317 318 326 334 327 318 325 324 325 326 327 328 329 329 326 328 330 327 328 nan nan nan nan nan nan nan nan nan nan nan nan nan nan nan nan nan nan nan nan nan nan nan
52 48 41 38 32 28 24 21 19 15 14 11 11 8 1 354 348 346 349 351 345 340 343 340 331 335 339 329 318 321 320 313 320 325 324 328 320 323 327 331 319 322 326 327 326 326 323 324 328 327 326 327 327 nan nan nan nan nan nan nan nan nan nan nan nan nan nan nan nan nan nan nan nan nan
54 48 41 33 24 14 12 10 7 8 9 7 6 7 4 359 356 352 349 350 343 337 337 337 336 334 335 328 317 320 316 318 318 323 323 324 323 324 328 329 327 321 324 326 325 327 321 322 326 325 325 325 325 nan nan nan nan nan nan nan nan nan nan nan nan nan nan nan nan nan nan nan nan nan
39 35 29 23 11 6 8 1 355 350 353 358 2 2 2 360 356 357 1 358 346 332 334 336 338 334 329 325 326 321 320 318 323 322 323 323 323 326 330 332 328 322 323 322 324 327 322 320 324 325 323 323 nan nan nan nan nan nan nan nan nan nan nan nan nan nan nan nan nan nan nan nan nan nan
21 18 14 9 4 354 347 344 344 342 341 338 340 344 344 344 351 356 0 358 353 341 333 334 342 339 326 331 330 321 316 319 324 321 325 323 324 327 333 333 331 322 319 323 320 323 322 321 322 326 324 nan nan nan nan nan nan nan nan nan nan nan nan nan nan nan nan nan nan nan nan nan nan nan
11 7 2 0 356 345 338 333 332 331 331 330 331 335 338 340 341 343 345 340 334 333 333 335 341 340 331 334 334 321 318 325 323 321 324 324 325 328 326 321 319 318 321 320 316 327 322 318 323 327 nan nan nan nan nan nan nan nan nan nan nan nan nan nan nan nan nan nan nan nan nan nan nan nan
358 354 350 347 344 338 333 332 333 328 321 321 328 332 333 332 334 340 340 338 336 335 332 333 337 335 333 333 332 326 321 320 319 314 313 308 308 313 319 326 321 321 317 318 318 320 318 316 323 325 nan nan nan nan nan nan nan nan nan nan nan nan nan nan nan nan nan nan nan nan nan nan nan nan
345 340 337 335 331 328 325 323 323 325 322 319 324 326 329 327 330 338 326 328 336 338 340 342 343 344 341 337 337 333 331 326 318 313 314 316 311 315 322 323 318 319 312 317 320 317 314 313 318 318 315 nan nan nan nan nan nan nan nan nan nan nan nan nan nan nan nan nan nan nan nan nan nan nan
329 331 340 334 327 326 321 321 321 319 314 315 320 320 322 327 333 335 315 310 317 330 334 339 339 339 340 337 333 332 331 330 321 318 325 319 313 319 322 321 316 310 311 318 315 311 316 307 309 310 307 309 nan nan nan nan nan nan nan nan nan nan nan nan nan nan nan nan nan nan nan nan nan nan
318 317 320 330 329 325 324 325 321 318 312 312 314 315 317 328 335 326 302 311 314 311 314 319 322 325 331 326 323 325 329 329 327 325 326 316 315 319 320 317 308 308 316 312 308 312 307 302 305 306 303 308 nan nan nan nan nan nan nan nan nan nan nan nan nan nan nan nan nan nan nan nan nan nan
309 310 309 314 324 330 330 326 325 322 320 315 312 311 316 326 334 305 303 313 312 312 316 318 316 319 319 317 317 318 318 318 322 324 323 319 315 315 316 314 311 313 312 303 308 310 302 302 304 309 308 304 306 nan nan nan nan nan nan nan nan nan nan nan nan nan nan nan nan nan nan nan nan nan
302 300 301 300 309 320 325 327 327 324 322 321 315 317 320 322 322 310 306 313 318 314 315 315 311 311 311 311 311 312 314 314 314 316 318 317 314 313 312 311 309 310 308 301 308 305 303 304 306 304 306 302 300 nan nan nan nan nan nan nan nan nan nan nan nan nan nan nan nan nan nan nan nan nan
294 294 293 294 302 313 316 320 322 324 318 319 313 321 325 328 325 315 312 311 308 309 310 309 309 310 310 309 307 308 309 311 312 312 314 314 313 311 310 309 307 304 305 301 309 305 299 299 304 303 303 301 297 nan nan nan nan nan nan nan nan nan nan nan nan nan nan nan nan nan nan nan nan nan
291 289 290 293 305 309 312 312 314 315 320 314 315 327 326 325 324 317 311 313 311 309 309 310 313 315 312 309 307 305 306 306 306 308 309 309 310 309 306 303 299 297 292 292 302 302 301 299 299 303 303 301 298 nan nan nan nan nan nan nan nan nan nan nan nan nan nan nan nan nan nan nan nan nan
288 289 288 278 276 290 298 301 305 311 312 309 319 323 324 322 318 309 309 310 311 311 313 317 318 317 313 310 307 304 303 302 303 306 308 310 311 306 299 295 293 289 286 289 295 299 298 296 296 299 300 300 300 302 nan nan nan nan nan nan nan nan nan nan nan nan nan nan nan nan nan nan nan nan
273 270 270 265 268 277 286 294 298 299 304 309 310 310 311 307 301 303 305 308 309 312 316 319 319 317 316 313 309 303 295 295 298 302 305 307 306 300 291 290 293 293 292 293 297 298 296 295 295 297 296 298 300 299 nan nan nan nan nan nan nan nan nan nan nan nan nan nan nan nan nan nan nan nan
264 267 269 273 278 280 281 285 289 293 297 303 310 312 310 304 305 305 305 305 308 313 317 319 320 317 314 312 299 292 294 302 308 309 309 307 303 294 294 296 297 301 305 304 303 301 299 295 294 294 295 296 299 297 nan nan nan nan nan nan nan nan nan nan nan nan nan nan nan nan nan nan nan nan
280 280 282 284 287 288 289 291 294 295 294 294 297 299 301 303 304 304 305 307 311 316 317 318 316 313 312 303 298 301 309 314 314 313 313 309 303 299 300 304 309 315 314 308 306 305 303 298 293 293 294 291 290 nan 292 nan nan nan nan nan nan nan nan nan nan nan nan nan nan nan nan nan nan nan
281 281 280 281 282 284 286 289 291 293 296 299 299 299 300 302 304 306 308 307 309 313 313 313 310 308 307 305 305 309 314 317 316 313 312 311 307 306 305 306 312 313 309 304 304 307 307 300 297 296 296 292 294 nan nan nan nan nan nan nan nan nan nan nan nan nan nan nan nan nan nan nan nan nan
282 282 283 283 284 285 287 288 290 291 292 294 296 296 297 299 302 303 303 305 309 310 309 310 310 310 308 307 307 311 314 317 318 316 315 315 312 309 310 313 313 310 309 306 303 303 303 301 299 297 294 292 293 291 nan nan nan nan nan nan nan nan nan nan nan nan nan nan nan nan nan nan nan nan
282 282 283 283 284 285 286 287 288 290 292 293 293 294 295 297 300 303 304 305 307 307 308 308 308 308 307 308 309 312 316 318 318 317 316 314 311 310 312 313 312 309 308 307 305 302 298 295 291 288 283 280 278 286 nan nan nan nan nan nan nan nan nan nan nan nan nan nan nan nan nan nan nan nan
280 280 282 282 283 283 285 288 290 291 292 nan nan nan nan nan nan nan nan nan nan nan 306 308 308 309 309 311 312 314 316 317 318 316 315 314 312 313 313 313 312 310 308 304 302 299 295 292 288 283 278 278 nan nan nan nan nan nan nan nan nan nan nan nan nan nan nan nan nan nan nan nan nan nan
280 282 282 282 284 286 287 290 nan nan nan nan nan nan nan nan nan nan nan nan nan nan nan nan nan 308 309 310 312 313 315 316 317 316 314 312 312 311 311 312 311 309 306 305 302 296 294 296 294 290 nan 282 nan nan nan nan nan nan nan nan nan nan nan nan nan nan nan nan nan nan nan nan nan nan
281 282 283 nan nan nan nan nan nan nan nan nan nan nan nan nan nan nan nan nan nan nan nan nan nan nan nan nan nan 313 314 315 316 316 316 314 313 314 316 316 313 309 306 304 298 295 293 293 290 286 nan nan nan nan nan nan nan nan nan nan nan nan nan nan nan nan nan nan nan nan nan nan nan nan
nan nan nan nan nan nan nan nan nan nan nan nan nan nan nan nan nan nan nan nan nan nan nan nan nan nan nan nan nan nan 316 316 318 321 320 318 318 320 321 318 312 308 306 302 298 295 293 293 292 290 287 nan 284 nan nan nan nan nan nan nan nan nan nan nan nan nan nan nan nan nan nan nan nan nan
nan nan nan nan nan nan nan nan nan nan nan nan nan nan nan nan nan nan nan nan nan nan nan nan nan nan nan nan nan nan nan 317 320 322 322 321 322 322 319 315 310 304 299 296 291 290 290 292 293 292 291 288 nan nan nan nan nan nan nan nan nan nan nan nan nan nan nan nan nan nan nan nan nan nan
nan nan nan nan nan nan nan nan nan nan nan nan nan nan nan nan nan nan nan nan nan nan nan nan nan nan nan nan nan nan nan nan 325 325 326 326 324 320 317 318 318 310 303 297 291 nan 292 293 292 290 288 nan nan 269 264 nan nan nan nan nan nan nan nan nan nan nan nan nan nan nan nan nan nan nan
nan nan nan nan nan nan nan nan nan nan nan nan nan nan nan nan nan nan nan nan nan nan nan nan nan nan nan nan nan nan nan nan nan 323 323 325 325 322 324 326 322 312 303 296 nan 292 293 293 286 282 271 265 nan 265 nan nan nan nan nan nan nan nan nan nan nan nan nan nan nan nan nan nan nan nan
nan nan nan nan nan nan nan nan nan nan nan nan nan nan nan nan nan nan nan nan nan nan nan nan nan nan nan nan nan nan nan nan nan nan nan nan nan nan nan nan nan 313 nan nan nan 299 286 273 273 272 267 266 268 nan nan nan nan nan nan nan nan nan nan nan nan nan nan nan nan nan nan nan nan nan
nan nan nan nan nan nan nan nan nan nan nan nan nan nan nan nan nan nan nan nan nan nan nan nan nan nan nan nan nan nan nan nan nan nan nan nan nan nan nan nan nan nan nan nan nan nan nan 276 277 275 267 nan nan nan nan nan nan nan nan nan nan nan nan nan nan nan nan nan nan nan nan nan nan nan
nan nan nan nan nan nan nan nan nan nan nan nan nan nan nan nan nan nan nan nan nan nan nan nan nan nan nan nan nan nan nan nan nan nan nan nan nan nan nan nan nan nan nan nan nan nan nan nan 268 263 nan nan nan nan nan nan nan nan nan nan nan nan nan nan nan nan nan nan nan nan nan nan nan nan
nan nan nan nan nan nan nan nan nan nan nan nan nan nan nan nan nan nan nan nan nan nan nan nan nan nan nan nan nan nan nan nan nan nan nan nan nan nan nan nan nan nan nan nan nan nan nan nan 254 nan nan nan nan nan nan nan nan nan nan nan nan nan nan nan nan nan nan nan nan nan nan nan nan nan